Location: Mount Cross
(36.6390°N, 79.4878°W)
Time: 18:02:18
(UTC+00:00)

Courier 1B Rocket - Pass Details

Date: 21 March 2023
Orbit: 920 x 1202 km, 28.2° (Epoch: 08 June)

Event Time Altitude Azimuth Distance (km) Brightness Sun altitude
Rises 06:07:06 0° 261° (W) 3,569 - -52.0°
Reaches altitude 10° 06:09:55 10° 252° (WSW) 2,610 - -51.8°
Maximum altitude 06:15:31 35° 188° (S) 1,427 - -51.4°
Drops below altitude 10° 06:21:10 10° 124° (SE) 2,629 - -51.0°
Sets 06:24:01 0° 116° (ESE) 3,598 - -50.8°
